Tracking 19792 objects as of 16-Jul-2019
HD Live streaming from Space Station
objects crossing your sky now

FENGYUN 1C DEB

Track FENGYUN 1C DEB now!
10-day predictions


NORAD ID: 32454
Int'l Code: 1999-025DBS
Perigee: 656.5 km
Apogee: 1,079.3 km
Inclination: 98.5 °
Period: 102.2 minutes
Semi major axis: 7238 km
RCS: 0.009 m2 (small)
Launch date: May 10, 1999
Source: People's Republic of China (PRC)
Launch site: Taiyaun Space Center, China (TSC)

Note: This is SATELLITE DEBRIS
aabbcc
Your satellite tracking list
Your tracking list is empty




NASA's NSSDC Master Catalog

Two Line Element Set (TLE):
1 32454U 99025DBS 19196.45789523 +.00000135 +00000-0 +69023-4 0  9995
2 32454 098.5194 277.2588 0292053 038.5090 323.6529 14.09586639244035
Source of the keplerian elements: AFSPC